カタログに戻る

STARLINK-32649

運用中通信VLEO
NORAD 62305·PAYLOAD·🇺🇸 United States

打ち上げ Dec 13, 2024 から Vandenberg Space Force Base

Loading…

次のパス (今後24時間)

TLE

最新Source: CelesTrak SupGP

元期: Sep 15, 2026, 02:43 UTC

1 62305C 24239E   26258.11368056  .00012980  00000+0  38332-3 0  2588
2 62305  53.1600  30.6365 0001099  86.9989 285.4684 15.34399569    16

AllMySatでSTARLINK-32649をリアルタイム追跡

Download on the App Store